Photometre #855[NE_1.6_Dp] OHP_OBSERVATOIRE AOT

File : 20221125_855.hum

25/11/2022,07:54:29,TEMP=7.9,BA=5.64,STAT.A,ExtBa=13.80
25/11/2022,08:01:03,TEMP=7.9,BA=5.64,STAT.A,ExtBa=13.80
25/11/2022,08:09:08,TEMP=7.8,BA=5.64,STAT.A,ExtBa=13.70
25/11/2022,08:19:23,TEMP=8.8,BA=5.52,STAT.A,ExtBa=13.70
25/11/2022,08:24:29,TEMP=9.5,BA=5.64,STAT.F,ExtBa=13.70
25/11/2022,08:36:23,TEMP=10.5,BA=5.64,STAT.D,ExtBa=13.70
25/11/2022,08:39:28,TEMP=11.0,BA=5.64,STAT.D,ExtBa=13.70
25/11/2022,08:51:23,TEMP=11.1,BA=5.64,STAT.D,ExtBa=13.70
25/11/2022,08:54:28,TEMP=11.7,BA=5.64,STAT.D,ExtBa=13.70
25/11/2022,09:06:23,TEMP=12.8,BA=5.64,STAT.D,ExtBa=13.70
25/11/2022,09:09:28,TEMP=13.3,BA=5.64,STAT.D,ExtBa=13.70
25/11/2022,09:21:23,TEMP=13.7,BA=5.64,STAT.D,ExtBa=13.80
25/11/2022,09:24:30,TEMP=14.1,BA=5.64,STAT.F,ExtBa=13.70
25/11/2022,09:36:22,TEMP=13.6,BA=5.60,STAT.D,ExtBa=13.80
25/11/2022,09:39:28,TEMP=13.9,BA=5.60,STAT.D,ExtBa=13.70
25/11/2022,09:51:23,TEMP=13.4,BA=5.64,STAT.D,ExtBa=13.70
25/11/2022,09:54:28,TEMP=13.5,BA=5.64,STAT.D,ExtBa=13.70
25/11/2022,10:06:23,TEMP=13.3,BA=5.64,STAT.D,ExtBa=13.70
25/11/2022,10:09:28,TEMP=13.4,BA=5.64,STAT.D,ExtBa=13.70
25/11/2022,10:21:23,TEMP=13.6,BA=5.64,STAT.D,ExtBa=13.80
25/11/2022,10:24:30,TEMP=14.2,BA=5.64,STAT.F,ExtBa=13.80
25/11/2022,10:36:23,TEMP=14.5,BA=5.64,STAT.D,ExtBa=13.80
25/11/2022,10:39:28,TEMP=14.8,BA=5.64,STAT.D,ExtBa=13.80
25/11/2022,10:51:23,TEMP=14.9,BA=5.64,STAT.D,ExtBa=13.70
25/11/2022,10:54:28,TEMP=15.3,BA=5.64,STAT.D,ExtBa=13.70
25/11/2022,11:06:23,TEMP=15.2,BA=5.64,STAT.D,ExtBa=13.80
25/11/2022,11:09:28,TEMP=15.5,BA=5.64,STAT.D,ExtBa=13.70
25/11/2022,11:21:23,TEMP=15.5,BA=5.64,STAT.D,ExtBa=13.70
25/11/2022,11:24:30,TEMP=15.7,BA=5.64,STAT.F,ExtBa=13.80
25/11/2022,11:36:23,TEMP=15.9,BA=5.64,STAT.D,ExtBa=13.80
25/11/2022,11:39:28,TEMP=16.3,BA=5.64,STAT.D,ExtBa=13.80
25/11/2022,11:51:23,TEMP=16.4,BA=5.64,STAT.D,ExtBa=13.80
25/11/2022,11:54:28,TEMP=16.6,BA=5.64,STAT.D,ExtBa=13.80
25/11/2022,12:06:23,TEMP=16.6,BA=5.64,STAT.D,ExtBa=13.80
25/11/2022,12:09:28,TEMP=16.9,BA=5.64,STAT.D,ExtBa=13.80
25/11/2022,12:21:23,TEMP=16.8,BA=5.64,STAT.D,ExtBa=13.80
25/11/2022,12:24:30,TEMP=16.9,BA=5.64,STAT.F,ExtBa=13.80
25/11/2022,12:36:23,TEMP=16.5,BA=5.64,STAT.D,ExtBa=13.80
25/11/2022,12:39:28,TEMP=16.8,BA=5.64,STAT.D,ExtBa=13.80
25/11/2022,12:51:23,TEMP=16.6,BA=5.64,STAT.D,ExtBa=13.80
25/11/2022,12:54:28,TEMP=16.8,BA=5.64,STAT.D,ExtBa=13.80
25/11/2022,13:06:23,TEMP=16.9,BA=5.64,STAT.D,ExtBa=13.80
25/11/2022,13:09:28,TEMP=17.1,BA=5.64,STAT.D,ExtBa=13.80
25/11/2022,13:21:23,TEMP=17.5,BA=5.64,STAT.D,ExtBa=13.80
25/11/2022,13:24:30,TEMP=17.8,BA=5.64,STAT.F,ExtBa=13.80
25/11/2022,13:36:23,TEMP=17.4,BA=5.64,STAT.D,ExtBa=13.80
25/11/2022,13:39:28,TEMP=17.6,BA=5.64,STAT.D,ExtBa=13.80
25/11/2022,13:51:23,TEMP=17.0,BA=5.64,STAT.D,ExtBa=13.80
25/11/2022,13:54:28,TEMP=17.0,BA=5.64,STAT.D,ExtBa=13.80
25/11/2022,14:06:23,TEMP=16.5,BA=5.64,STAT.D,ExtBa=13.80
25/11/2022,14:09:28,TEMP=16.6,BA=5.64,STAT.D,ExtBa=13.80
25/11/2022,14:21:23,TEMP=16.3,BA=5.64,STAT.D,ExtBa=13.80
25/11/2022,14:24:29,TEMP=16.4,BA=5.64,STAT.F,ExtBa=13.80
25/11/2022,14:29:36,TEMP=16.2,BA=5.64,STAT.A,ExtBa=13.80
25/11/2022,14:39:50,TEMP=15.8,BA=5.60,STAT.A,ExtBa=13.80
25/11/2022,14:47:55,TEMP=15.6,BA=5.48,STAT.A,ExtBa=13.80
25/11/2022,14:54:29,TEMP=15.4,BA=5.56,STAT.A,ExtBa=13.80
25/11/2022,14:59:56,TEMP=15.1,BA=5.56,STAT.A,ExtBa=13.80
25/11/2022,15:04:31,TEMP=15.0,BA=5.56,STAT.A,ExtBa=13.80